Lewisburg, WV

7:09 AM EDT on June 27, 2017 (GMT -0400)
Greenbrier Valley

Weather History for KLWB - February, 2014

Change the Weather History Date:

Saturday, February 22, 2014

  Actual Average Record
Temperature  
Mean Temperature 42 °F 33 °F  
Max Temperature 56 °F 44 °F 68 °F (1980)
Min Temperature 28 °F 22 °F 12 °F (1999)
Degree Days  
Heating Degree Days 23    
Month to date heating degree days 758  
Since 1 July heating degree days 3068  
Cooling Degree Days 0    
Month to date cooling degree days 0  
Year to date cooling degree days 0  
Moisture  
Dew Point 15 °F    
Average Humidity 39    
Maximum Humidity 63    
Minimum Humidity 14    
Precipitation  
Precipitation 0.00 in - 0.24 in (2017)
Month to date precipitation 1.89  
Year to date precipitation 2.83  
Snow  
Snow 0.00 in - - ()
Month to date snowfall 14.0  
Since 1 July snowfall 30.9  
Snow Depth 0.00 in    
Sea Level Pressure  
Sea Level Pressure 30.07 in    
Wind  
Wind Speed 4 mph (WSW)    
Max Wind Speed 14 mph    
Max Gust Speed 18 mph    
Visibility 10 miles    
Events      
T = Trace of Precipitation, MM = Missing Value Source: NWS Daily Summary

Daily Weather History Graph

Daily Weather History Graph

Search for Another Location

Airport or City:

Trip Planner

Search our weather history database for the weather conditions in past years. The results will help you decide how hot, cold, wet, or windy it might be!

Date:

Astronomy

Feb. 22, 2014 Rise Set
Actual Time 7:02 AM EST 6:08 PM EST
Civil Twilight 6:36 AM EST 6:34 PM EST
Nautical Twilight 6:05 AM EST 7:05 PM EST
Astronomical Twilight 5:35 AM EST 7:35 PM EST
Moon 12:53 AM EST (2/22) 11:20 AM EST (2/22)
Length of Visible Light 11h 58m
Length of Day
11h 05m
Waning Gibbous, 50% of the Moon is Illuminated
Feb 22
Waning Gibbous
Feb 22
Last Quarter
Mar 1
New
Mar 8
First Quarter
Mar 16
Full

Hourly Weather History & Observations

Time (EST) Temp. Windchill Dew Point Humidity Pressure Visibility Wind Dir Wind Speed Gust Speed Precip Events Conditions
12:15 AM 37.4 °F - 16.0 °F 42% 30.03 in 10.0 mi Calm Calm - N/A   Clear
12:35 AM 36.9 °F 34.3 °F 16.3 °F 43% 30.03 in 10.0 mi West 3.5 mph - N/A   Clear
12:55 AM 37.8 °F - 15.6 °F 41% 30.03 in 10.0 mi Calm Calm - N/A   Clear
1:15 AM 37.2 °F 34.7 °F 15.6 °F 41% 30.04 in 10.0 mi WSW 3.5 mph - N/A   Clear
1:35 AM 37.2 °F 33.6 °F 15.1 °F 40% 30.05 in 10.0 mi West 4.6 mph - N/A   Clear
1:55 AM 36.7 °F 34.1 °F 15.6 °F 42% 30.05 in 10.0 mi West 3.5 mph - N/A   Clear
2:15 AM 36.5 °F 33.9 °F 14.5 °F 41% 30.05 in 10.0 mi West 3.5 mph - N/A   Clear
2:35 AM 35.4 °F 31.5 °F 14.9 °F 43% 30.05 in 10.0 mi WSW 4.6 mph - N/A   Clear
2:55 AM 33.4 °F 30.4 °F 16.0 °F 49% 30.05 in 10.0 mi SW 3.5 mph - N/A   Clear
3:15 AM 33.3 °F - 17.6 °F 53% 30.05 in 10.0 mi Calm Calm - N/A   Clear
3:35 AM 32.9 °F 29.8 °F 17.4 °F 53% 30.05 in 10.0 mi WSW 3.5 mph - N/A   Clear
3:55 AM 32.5 °F 29.3 °F 17.6 °F 54% 30.06 in 10.0 mi SW 3.5 mph - N/A   Clear
4:15 AM 29.3 °F - 18.5 °F 64% 30.06 in 10.0 mi Calm Calm - N/A   Clear
4:35 AM 30.9 °F - 18.7 °F 61% 30.07 in 10.0 mi Calm Calm - N/A   Clear
4:55 AM 31.6 °F 27.0 °F 17.6 °F 56% 30.08 in 10.0 mi WSW 4.6 mph - N/A   Clear
5:15 AM 32.0 °F 26.4 °F 17.2 °F 55% 30.08 in 10.0 mi SW 5.8 mph - N/A   Clear
5:35 AM 31.3 °F 26.6 °F 17.4 °F 57% 30.09 in 10.0 mi SW 4.6 mph - N/A   Clear
5:55 AM 31.6 °F 27.0 °F 16.9 °F 54% 30.09 in 10.0 mi SSW 4.6 mph - N/A   Clear
6:15 AM 32.0 °F 28.7 °F 17.1 °F 54% 30.09 in 10.0 mi WSW 3.5 mph - N/A   Clear
6:35 AM 30.9 °F 27.5 °F 16.9 °F 56% 30.09 in 10.0 mi SSW 3.5 mph - N/A   Clear
6:55 AM 30.0 °F 26.5 °F 18.1 °F 61% 30.09 in 10.0 mi SW 3.5 mph - N/A   Clear
7:15 AM 30.6 °F 27.1 °F 16.7 °F 56% 30.10 in 10.0 mi WSW 3.5 mph - N/A   Clear
7:35 AM 28.9 °F 25.2 °F 18.1 °F 64% 30.10 in 10.0 mi SSW 3.5 mph - N/A   Clear
7:55 AM 29.7 °F - 18.1 °F 62% 30.11 in 10.0 mi Calm Calm - N/A   Clear
8:15 AM 30.4 °F - 18.0 °F 60% 30.11 in 10.0 mi Calm Calm - N/A   Clear
8:35 AM 33.6 °F - 20.3 °F 58% 30.12 in 10.0 mi Calm Calm - N/A   Clear
8:55 AM 36.1 °F 33.5 °F 20.1 °F 52% 30.12 in 10.0 mi SSW 3.5 mph - N/A   Clear
9:15 AM 37.9 °F 34.4 °F 17.8 °F 44% 30.13 in 10.0 mi South 4.6 mph - N/A   Clear
9:35 AM 39.0 °F - 15.8 °F 39% 30.15 in 10.0 mi Calm Calm - N/A   Clear
9:55 AM 40.6 °F - 18.3 °F 41% 30.15 in 10.0 mi Calm Calm - N/A   Clear
10:15 AM 43.2 °F 39.7 °F 14.4 °F 31% 30.15 in 10.0 mi WSW 5.8 mph - N/A   Clear
10:35 AM 44.4 °F 41.2 °F 15.1 °F 31% 30.14 in 10.0 mi SW 5.8 mph - N/A   Clear
10:55 AM 46.0 °F 41.4 °F 15.1 °F 29% 30.14 in 10.0 mi SW 9.2 mph - N/A   Clear
11:15 AM 47.5 °F - 14.4 °F 27% 30.13 in 10.0 mi SW 6.9 mph - N/A   Clear
11:35 AM 48.4 °F - 13.8 °F 25% 30.13 in 10.0 mi WSW 6.9 mph - N/A   Clear
11:55 AM 49.1 °F - 13.5 °F 24% 30.12 in 10.0 mi WSW 6.9 mph - N/A   Clear
12:15 PM 49.5 °F - 13.6 °F 24% 30.12 in 10.0 mi WSW 9.2 mph - N/A   Clear
12:35 PM 50.5 °F - 14.7 °F 24% 30.10 in 10.0 mi WSW 8.1 mph - N/A   Clear
12:55 PM 52.0 °F - 13.1 °F 21% 30.09 in 10.0 mi West 9.2 mph 17.3 mph N/A   Clear
1:15 PM 52.9 °F - 11.7 °F 19% 30.09 in 10.0 mi West 8.1 mph 17.3 mph N/A   Clear
1:35 PM 53.6 °F - 12.7 °F 20% 30.08 in 10.0 mi WSW 10.4 mph 18.4 mph N/A   Clear
1:55 PM 54.3 °F - 12.6 °F 19% 30.06 in 10.0 mi West 9.2 mph - N/A   Clear
2:15 PM 54.3 °F - 11.1 °F 18% 30.05 in 10.0 mi NW 6.9 mph - N/A   Clear
2:35 PM 55.4 °F - 9.3 °F 16% 30.05 in 10.0 mi West 8.1 mph 21.9 mph N/A   Clear
2:55 PM 55.9 °F - 8.2 °F 15% 30.05 in 10.0 mi WSW 13.8 mph 18.4 mph N/A   Clear
3:15 PM 55.8 °F - 7.9 °F 15% 30.05 in 10.0 mi West 9.2 mph 19.6 mph N/A   Clear
3:35 PM 55.8 °F - 8.8 °F 15% 30.04 in 10.0 mi West 9.2 mph 16.1 mph N/A   Clear
3:55 PM 56.3 °F - 7.7 °F 14% 30.04 in 10.0 mi West 10.4 mph - N/A   Clear
4:15 PM 55.8 °F - 7.9 °F 15% 30.04 in 10.0 mi West 8.1 mph - N/A   Clear
4:35 PM 55.9 °F - 8.1 °F 15% 30.04 in 10.0 mi West 9.2 mph - N/A   Clear
4:55 PM 55.4 °F - 7.3 °F 15% 30.04 in 10.0 mi West 6.9 mph - N/A   Clear
5:15 PM 54.9 °F - 9.1 °F 16% 30.04 in 10.0 mi SW 6.9 mph - N/A   Clear
5:35 PM 52.9 °F - 12.2 °F 20% 30.04 in 10.0 mi SW 4.6 mph - N/A   Clear
5:55 PM 49.8 °F - 12.6 °F 23% 30.03 in 10.0 mi SSW 4.6 mph - N/A   Clear
6:15 PM 49.3 °F - 11.7 °F 22% 30.03 in 10.0 mi South 3.5 mph - N/A   Clear
6:35 PM 49.1 °F - 11.7 °F 22% 30.04 in 10.0 mi Calm Calm - N/A   Clear
6:55 PM 45.9 °F - 12.9 °F 27% 30.04 in 10.0 mi Calm Calm - N/A   Clear
7:15 PM 43.9 °F - 13.8 °F 30% 30.04 in 10.0 mi Calm Calm - N/A   Clear
7:35 PM 44.2 °F - 12.0 °F 27% 30.04 in 10.0 mi Calm Calm - N/A   Clear
7:55 PM 43.5 °F - 12.7 °F 29% 30.04 in 10.0 mi Calm Calm - N/A   Clear
8:15 PM 42.8 °F - 14.5 °F 32% 30.04 in 10.0 mi Calm Calm - N/A   Clear
8:35 PM 39.4 °F - 15.1 °F 37% 30.04 in 10.0 mi Calm Calm - N/A   Clear
8:50 PM 37.6 °F - 16.5 °F 42% 30.04 in 10.0 mi Calm Calm - N/A   Clear
9:15 PM 36.1 °F - 17.4 °F 47% 30.04 in 10.0 mi Calm Calm - N/A   Clear
9:35 PM 41.2 °F - 15.6 °F 36% 30.04 in 10.0 mi Calm Calm - N/A   Clear
9:55 PM 37.0 °F - 18.7 °F 48% 30.05 in 10.0 mi Calm Calm - N/A   Clear
10:15 PM 33.4 °F - 20.1 °F 58% 30.05 in 10.0 mi Calm Calm - N/A   Clear
10:35 PM 35.6 °F - 20.1 °F 53% 30.04 in 10.0 mi Calm Calm - N/A   Clear
10:55 PM 36.1 °F - 19.4 °F 51% 30.04 in 10.0 mi Calm Calm - N/A   Clear
11:15 PM 34.2 °F - 19.6 °F 55% 30.03 in 10.0 mi Calm Calm - N/A   Clear
11:35 PM 30.9 °F - 20.3 °F 65% 30.04 in 10.0 mi Calm Calm - N/A   Clear
11:55 PM 32.0 °F - 19.4 °F 60% 30.04 in 10.0 mi Calm Calm - N/A   Clear